Theta_e
338 336 334 335 336 335 333 332 332 335 337 337 336 336 337 337 337 337 337 336 336 336 336 336 336 338 339 339 338 338 338 338 337 337 336 337 337 338 338 339 337 337 336
337 337 337 337 337 336 333 333 333 336 338 336 337 337 337 338 337 337 336 335 336 337 337 337 338 339 339 339 339 338 338 338 337 336 335 336 337 336 337 337 336 334 332
338 338 338 337 337 337 334 333 333 335 335 337 337 337 337 337 338 338 338 338 338 338 338 338 338 338 338 338 338 337 337 336 336 335 335 335 336 336 335 332 330 329 327
339 339 338 335 335 337 336 333 333 333 333 334 336 336 336 336 336 336 336 336 336 336 337 337 337 337 337 336 335 335 335 335 336 334 334 334 333 331 331 332 330 327 327
341 340 338 336 336 335 336 334 332 331 332 332 332 332 333 332 332 333 333 335 335 335 336 336 335 334 334 333 333 333 333 334 331 330 330 331 332 331 331 331 330 329 330
342 342 339 337 336 336 335 332 332 331 332 332 332 332 332 332 332 332 332 332 332 333 333 332 332 331 331 331 331 331 331 331 331 330 330 329 329 329 329 328 328 329 328
341 343 342 338 338 336 334 332 333 332 332 332 331 331 330 330 329 329 330 330 331 331 331 330 330 331 330 330 328 328 326 327 328 328 328 327 328 329 328 328 325 325 325
342 341 342 341 339 337 334 332 332 332 331 330 329 330 330 329 327 327 327 327 328 328 327 325 325 324 321 320 321 323 324 326 327 327 325 325 325 325 326 325 325 324 323
338 340 341 341 340 338 336 333 333 331 328 324 324 327 329 327 325 325 325 326 326 324 323 322 321 318 314 313 315 315 314 314 312 313 314 314 312 311 311 312 313 315 316
328 330 340 341 340 339 336 334 333 332 330 325 324 325 327 325 324 323 323 323 324 323 321 320 317 316 314 314 315 314 315 314 314 314 313 312 312 313 313 313 313 313 312
331 332 339 340 340 338 336 335 334 333 331 327 327 327 326 324 325 323 323 323 322 321 319 317 316 316 317 316 315 314 315 313 313 312 312 311 310 310 308 307 305 304 303
331 331 333 335 337 337 336 335 333 331 329 328 328 326 325 325 324 323 321 318 317 317 318 316 316 315 314 315 316 315 313 312 311 310 309 307 305 303 301 300 299 299 299
331 331 332 332 334 333 334 333 331 329 328 327 325 325 323 322 321 318 314 313 311 312 312 313 314 314 312 306 304 303 304 304 304 304 302 301 300 300 300 299 298 298 298
328 331 330 331 330 328 326 327 323 322 324 326 324 322 321 319 317 316 315 312 312 313 312 310 305 303 302 301 300 300 300 300 300 300 300 300 299 299 298 297 297 297 297
328 328 328 326 325 324 323 323 323 322 319 320 321 320 320 318 315 314 313 312 309 306 304 303 302 301 300 300 300 299 299 299 300 300 300 299 298 297 297 296 297 297 297
326 326 324 323 322 322 322 322 321 318 318 317 317 317 317 315 313 309 306 304 303 302 302 301 300 300 300 300 300 299 298 299 299 299 299 297 297 296 296 296 296 296 296
322 320 318 315 311 310 309 310 314 313 311 310 309 308 307 307 305 304 302 301 300 300 300 300 300 300 300 299 298 297 297 297 298 298 297 295 294 294 295 295 296 296 297
310 305 304 304 304 303 302 300 299 299 299 300 301 301 303 303 302 302 300 299 299 298 298 297 297 297 296 296 295 297 297 296 296 296 295 295 293 293 294 295 295 295 296
306 307 307 307 307 306 305 305 305 303 300 299 299 301 302 302 301 301 300 299 298 298 298 297 297 296 296 296 295 296 297 296 296 296 295 295 294 293 293 294 294 294 295
308 308 308 308 308 307 307 307 306 305 303 300 300 301 301 301 300 300 300 299 298 298 298 297 297 297 296 296 295 295 295 295 296 296 295 296 296 295 293 293 294 294 294
308 309 308 308 308 308 307 307 306 305 304 302 300 300 300 300 300 299 298 298 298 298 298 297 297 297 296 296 296 295 295 295 295 295 296 296 295 294 293 293 293 294 294
309 309 309 309 309 308 308 308 307 306 305 303 301 300 300 299 299 299 298 298 298 298 298 297 297 296 296 296 295 296 295 295 294 295 296 295 294 291 291 292 293 294 294
310 310 310 310 310 309 309 309 308 307 307 305 303 300 299 300 299 299 299 299 299 299 298 297 296 296 296 296 296 296 295 294 294 294 294 293 290 290 290 291 293 293 293
312 311 312 312 311 311 311 310 310 308 307 306 305 303 302 301 300 300 299 299 299 299 298 297 297 297 297 297 296 292 291 291 291 291 290 290 289 289 290 291 292 293 293
314 313 309 310 310 311 311 311 311 310 307 306 305 305 304 303 302 301 300 299 299 299 299 298 297 297 297 297 297 294 295 293 291 290 290 291 290 289 289 291 292 292 292
309 310 309 308 308 310 310 311 311 311 309 308 307 306 306 304 303 302 301 300 299 299 299 299 298 298 298 297 298 296 296 296 295 292 293 292 291 289 290 292 292 291 292
Wind_Speed
6 2 1 3 5 5 6 9 10 9 7 5 3 1 3 5 6 8 10 12 13 15 17 19 20 20 22 22 22 23 24 19 18 17 11 10 9 6 8 10 7 7 9
7 4 3 1 3 5 6 8 9 8 6 8 8 7 6 4 4 4 6 8 9 10 12 14 16 18 17 21 19 19 20 19 16 13 12 9 6 4 4 6 7 8 7
8 6 4 3 2 5 6 7 7 8 9 9 8 9 11 10 7 5 3 2 3 4 6 7 9 11 14 15 15 12 13 12 11 13 14 11 7 4 3 3 2 2 4
10 6 4 0 2 3 5 6 6 8 9 11 10 10 10 10 9 8 6 4 2 1 2 3 3 5 6 5 7 9 9 8 6 3 2 3 2 3 7 8 8 8 8
10 8 6 4 1 4 4 4 4 6 7 9 9 9 10 11 14 13 11 10 7 3 2 5 6 7 6 4 4 7 5 3 3 4 2 5 5 6 7 10 10 11 10
15 11 11 9 4 2 4 2 2 3 5 6 7 8 7 9 10 8 7 6 5 6 6 6 5 4 3 2 3 3 4 5 4 4 4 5 6 9 10 11 13 13 10
16 16 15 12 7 4 2 2 2 2 2 4 5 6 6 7 9 8 5 5 5 7 7 7 5 4 4 5 5 3 3 3 2 3 4 5 6 5 5 6 10 7 7
10 17 19 16 10 8 5 5 4 2 1 2 3 3 4 7 9 9 8 7 6 7 9 11 11 12 13 12 10 9 10 9 11 10 9 4 5 4 2 4 4 2 2
11 12 17 19 14 12 8 8 8 5 3 1 0 2 5 7 8 6 7 7 7 8 10 11 10 10 13 11 8 9 9 11 11 10 10 9 9 9 9 9 6 4 3
9 11 14 15 17 14 10 11 11 9 6 4 2 3 5 4 5 4 3 4 3 5 6 7 9 8 9 9 7 7 7 8 8 8 8 7 6 6 4 4 4 3 2
4 6 11 16 19 18 13 14 14 12 9 5 3 3 5 5 4 4 3 1 2 6 6 8 8 6 4 4 5 5 6 7 6 5 6 6 7 7 8 8 7 7 6
1 1 7 13 18 20 17 17 16 13 10 7 4 5 6 4 5 5 4 4 6 4 7 7 4 1 2 3 4 4 4 4 4 4 5 6 8 9 10 10 10 9 8
1 2 1 6 11 16 18 20 18 16 13 8 7 7 5 4 4 8 9 8 8 4 4 3 3 3 4 6 8 7 6 5 5 4 7 8 11 12 12 10 9 9 8
3 3 0 3 5 10 11 12 9 8 10 8 6 6 6 6 7 7 7 7 6 5 6 6 7 7 7 7 7 7 8 8 8 9 9 10 11 11 11 10 9 9 7
6 7 6 4 4 6 8 9 9 9 7 5 7 7 6 8 8 10 10 9 8 8 7 6 5 5 6 8 9 10 10 8 6 7 8 9 9 10 9 8 7 7 7
9 11 10 9 9 8 7 7 8 8 8 9 9 6 9 10 12 13 11 8 8 7 4 4 5 7 7 7 8 8 7 6 5 7 8 9 10 10 9 6 5 7 8
11 13 13 13 13 12 10 8 6 9 10 9 8 10 9 11 11 10 9 7 8 6 6 9 7 6 5 5 6 6 6 5 5 5 6 10 12 9 6 4 5 6 5
18 19 18 18 17 15 13 12 10 8 6 7 9 9 11 11 10 9 8 7 8 7 7 6 4 4 5 5 5 5 6 8 6 5 7 11 11 8 6 4 5 5 5
21 22 20 20 20 18 16 16 15 13 9 6 9 11 11 10 8 8 6 4 4 4 4 4 4 4 5 6 6 3 3 2 1 4 6 10 10 10 4 3 4 5 4
19 18 16 15 14 13 12 12 11 11 8 6 7 9 9 8 7 5 4 1 2 3 3 3 3 3 3 5 5 4 2 2 2 3 5 8 10 9 6 3 5 5 1
13 11 8 6 5 4 4 3 3 3 4 4 5 8 7 5 4 4 1 1 2 3 3 4 4 4 4 4 3 4 4 1 3 4 7 8 9 9 6 2 4 2 2
8 4 1 2 4 4 5 6 6 5 3 2 3 6 7 6 6 5 3 3 4 5 6 6 5 4 5 5 5 5 6 5 4 6 8 10 11 11 5 2 2 1 2
6 5 5 7 10 11 10 9 9 10 8 7 6 6 8 7 7 5 2 3 5 6 6 5 4 3 2 4 7 9 11 10 9 9 9 11 11 8 4 4 3 4 5
9 9 11 14 16 17 16 14 10 6 7 9 9 6 5 5 6 5 4 3 5 6 7 5 7 6 5 6 9 9 7 6 7 8 9 9 9 7 5 5 5 6 6
11 12 10 13 16 17 16 16 14 11 10 10 9 10 9 9 8 8 9 9 8 8 7 6 8 9 8 6 7 5 4 4 5 6 6 7 8 8 7 7 6 8 7
7 11 15 15 16 16 16 18 16 15 17 17 17 15 14 14 14 14 14 15 14 12 11 9 7 10 11 12 10 9 8 6 5 4 5 7 7 8 8 7 6 6 6
Wind_Direction
199 206 231 303 345 351 354 358 9 24 34 37 43 13 248 224 212 210 215 217 225 233 234 235 237 241 241 241 244 246 241 235 251 261 269 282 280 293 282 264 246 246 243
188 187 190 245 346 3 360 10 22 39 39 47 49 64 83 128 162 182 201 214 231 232 231 238 244 243 235 238 242 245 249 253 245 245 261 288 283 287 278 238 235 239 227
181 189 197 230 315 9 5 21 41 48 51 54 56 66 72 81 94 112 131 179 205 222 236 245 245 246 243 246 256 258 269 257 261 267 270 269 245 241 206 180 192 264 262
186 168 172 178 346 14 13 18 58 68 59 63 64 68 74 77 80 83 83 89 94 164 220 231 239 222 233 238 259 261 263 271 159 17 250 143 188 250 264 260 251 244 248
201 195 178 170 36 9 18 27 75 77 75 69 65 66 68 70 74 75 73 69 63 66 120 183 186 190 196 231 247 224 203 212 306 354 286 247 259 269 270 266 260 252 240
213 217 211 213 201 330 1 37 97 93 75 66 67 70 72 76 74 73 75 76 79 86 80 73 64 49 25 348 300 285 308 307 291 289 290 288 276 267 268 284 281 262 238
219 223 238 219 216 247 283 166 163 140 93 80 76 78 78 79 73 60 71 90 80 88 89 86 77 97 88 75 68 63 52 23 291 284 284 288 310 303 301 309 270 216 248
240 230 236 229 220 229 231 212 188 169 147 125 122 100 93 97 78 60 57 67 75 84 89 87 90 94 89 76 68 66 60 60 61 56 50 60 41 3 287 48 34 285 276
252 243 237 235 227 225 222 218 206 192 191 183 147 128 108 106 94 75 56 58 80 100 105 103 93 98 91 77 58 56 59 61 57 54 52 49 45 39 37 32 29 28 9
265 251 237 228 222 229 222 220 221 209 209 221 233 153 134 125 123 108 66 42 63 113 119 113 110 104 95 84 57 50 42 67 58 49 52 55 51 43 27 11 13 350 338
315 260 232 216 221 221 221 222 215 216 214 209 215 165 162 164 182 201 169 121 122 133 132 128 118 105 95 77 50 37 45 62 65 54 51 47 34 25 21 15 8 5 9
350 291 227 223 219 216 220 218 204 207 206 191 196 185 172 201 221 201 169 131 113 118 130 129 120 83 30 39 30 47 56 54 43 34 29 27 21 18 21 20 20 19 20
75 93 232 220 231 214 216 206 204 204 198 185 178 170 173 182 173 147 141 137 135 145 131 110 78 51 41 61 68 66 64 59 53 37 42 40 35 28 21 22 27 32 32
79 100 46 247 222 207 197 212 210 181 169 168 164 175 166 166 162 146 144 139 131 136 126 117 104 92 82 72 68 66 63 63 63 65 55 39 24 21 24 38 42 44 41
74 75 70 94 129 171 175 166 168 167 157 160 167 169 170 166 159 146 133 130 132 127 121 111 100 84 80 75 65 56 57 61 58 53 37 27 25 25 30 35 32 29 38
84 89 93 104 119 124 132 143 152 138 141 142 140 142 152 153 148 133 130 134 127 114 129 117 110 100 88 64 42 40 47 57 55 41 31 26 21 22 33 41 45 28 22
96 101 104 105 104 100 100 101 126 138 141 143 140 136 140 147 142 138 134 129 113 91 115 107 100 88 63 35 12 12 43 75 70 52 42 29 24 29 41 43 29 26 43
109 106 103 98 91 89 88 91 92 93 118 141 144 147 149 146 144 139 128 111 102 101 96 91 83 73 42 40 39 56 66 80 79 53 27 17 20 30 35 29 22 22 18
111 107 99 93 88 85 85 84 79 76 87 121 148 152 153 147 148 148 138 99 76 70 67 66 62 46 54 38 36 60 63 49 41 20 12 16 22 22 17 356 341 335 352
115 107 99 93 88 86 83 77 73 70 74 113 150 161 159 152 149 155 156 159 4 354 339 342 349 356 12 17 30 42 12 311 300 316 335 347 346 351 354 326 338 354 331
128 118 112 105 89 65 54 66 61 78 72 93 161 172 172 163 176 167 159 316 319 309 296 289 281 275 298 330 336 5 7 347 265 293 314 321 328 336 335 298 335 9 134
149 154 161 297 292 299 308 293 281 269 262 261 208 203 204 205 225 239 271 306 307 311 309 295 272 243 264 295 296 315 321 321 292 276 289 302 310 317 308 259 310 260 224
203 237 272 282 279 280 278 280 282 265 258 249 257 253 242 233 242 238 269 288 296 303 306 282 205 198 257 275 293 294 288 281 269 263 274 289 300 304 262 238 262 235 257
252 259 275 283 282 278 278 264 270 274 264 240 243 246 235 216 224 233 246 283 301 301 317 267 232 248 276 332 310 294 279 263 258 263 272 281 282 278 257 244 242 251 274
258 261 276 287 280 283 267 262 258 262 267 251 245 243 246 249 250 256 257 261 277 290 299 294 258 259 270 295 320 300 305 288 277 275 279 282 273 259 246 237 257 269 260
267 281 289 293 281 274 259 258 260 269 265 265 262 259 253 255 259 263 267 265 266 276 279 278 282 275 265 265 290 277 277 294 300 282 288 296 272 247 225 232 267 255 229